Flag for Germany Weather past 2 weeks in Wittenberg, Saxony-Anhalt, Germany

Now
88 °F

Pleasantly warm.


Feels Like: 85 °F
Forecast: 67 / 93 °F
Wind: 12 mph from East

Location: Holzdorf

Current Time: Jul 2, 2015 at 7:42:45 PM

Latest Report: Jul 2, 2015 at 6:20 PM


Visibility: N/A

Pressure: 30.21 "Hg

Humidity: 24%

Dew point: 46 °F

Location of WittenbergLocation

Historic Weather in Wittenberg — Graph

°F

Wittenberg temperature yesterday

Maximum temperature yesterday: 82 °F (at 3:20 PM)
Minimum temperature yesterday: 54 °F (at 4:20 AM)
Average temperature yesterday: 71 °F

Past Weeks' High & Low Weather Summary

 TemperatureHumidityPressure
High88 °F (Jul 2, 3:20 PM)100% (Jun 18, 5:20 AM)30.24 "Hg (Jun 18, 5:20 AM)
Low43 °F (Jun 25, 3:20 AM)24% (Jul 2, 6:20 PM)29.62 "Hg (Jun 23, 1:20 AM)
Average62 °F68%30.03 "Hg
* Reported Jun 17 6:20 PM — Jul 2 6:20 PM, Wittenberg, Weather by CustomWeather, © 2015

Note: Actual official high and low records may vary slightly from our data, if they occured in-between our weather recording intervals... More about our weather records

Advertising

Wittenberg weather history for previous 24 hours

 ConditionsComfort  
Time TempWeatherWind HumidityBarometerVisibility
6:20 PM
Thu, Jul 2
88 °FPleasantly warm.12 mph24%30.21 "HgN/A
5:20 PM88 °FPleasantly warm.13 mph25%30.21 "HgN/A
5:00 PM88 °FPleasantly warm.12 mph25%30.21 "HgN/A
4:20 PM88 °FPleasantly warm.12 mph27%30.21 "HgN/A
3:20 PM88 °FPleasantly warm.13 mph27%30.21 "HgN/A
2:20 PM86 °FPleasantly warm.13 mph31%30.21 "HgN/A
1:20 PM86 °FPleasantly warm.14 mph31%30.21 "HgN/A
12:20 PM84 °FPleasantly warm.14 mph35%30.24 "HgN/A
11:20 AM82 °FPleasantly warm.15 mph37%30.24 "HgN/A
10:20 AM79 °FWarm.15 mph42%30.24 "HgN/A
9:20 AM75 °FPassing clouds.10 mph47%30.24 "HgN/A
8:20 AM73 °FMild.9 mph50%30.24 "HgN/A
7:20 AM68 °FMild.7 mph60%30.24 "HgN/A
6:20 AM63 °FMild.5 mph73%30.24 "HgN/A
5:20 AM59 °FPassing clouds.2 mph72%30.21 "HgN/A
4:20 AM61 °FPassing clouds.5 mph68%30.21 "HgN/A
3:20 AM61 °FPassing clouds.5 mph68%30.21 "HgN/A
2:20 AM64 °FPassing clouds.6 mph60%30.21 "HgN/A
1:20 AM68 °FPassing clouds.7 mph53%30.21 "HgN/A
12:20 AM68 °FPassing clouds.7 mph53%30.21 "HgN/A
11:20 PM
Wed, Jul 1
68 °FPassing clouds.6 mph53%30.21 "HgN/A
10:20 PM68 °FScattered clouds.5 mph53%30.18 "HgN/A
9:20 PM73 °FScattered clouds.3 mph44%30.18 "HgN/A
8:20 PM79 °FScattered clouds.6 mph34%30.18 "HgN/A
7:20 PM81 °FPassing clouds.9 mph32%30.15 "HgN/A
Weather by CustomWeather, © 2015

See weather overviewHow to use our weather pages